DLH2YM EDDF-EDDW

Flight info

Callsign DLH2YM
Flight time 0h 37m
Altitude 22000
Route MARUN6E/07C MARUN Y153 WRB N850 NIE Z88 VERED VERED3P
Aircraft A321/M-SDE3FGHIRWY/LB1

Departure

Time 2026-04-15 08:58
Airport Frankfurt Main Airport (EDDF)

Arrival

Time 2026-04-15 09:35
Airport Bremen Airport (EDDW)
Time Latitude Longitude Altitude Speed Heading
2026-04-15 08:23 50.04758 8.58242 367 ft 0 kts 159°
2026-04-15 08:45 50.04762 8.58240 360 ft 3 kts 156°
2026-04-15 08:45 50.04776 8.58216 359 ft 4 kts 112°
2026-04-15 08:45 50.04787 8.58198 357 ft 3 kts 162°
2026-04-15 08:45 50.04808 8.58197 357 ft 4 kts 223°
2026-04-15 08:46 50.04821 8.58231 359 ft 4 kts 253°
2026-04-15 08:46 50.04828 8.58269 357 ft 2 kts 250°
2026-04-15 08:46 50.04831 8.58280 359 ft 2 kts 249°
2026-04-15 08:51 50.04828 8.58267 357 ft 4 kts 251°
2026-04-15 08:51 50.04814 8.58198 357 ft 9 kts 251°
2026-04-15 08:51 50.04791 8.58090 359 ft 12 kts 251°
2026-04-15 08:52 50.04752 8.57970 359 ft 13 kts 218°
2026-04-15 08:52 50.04664 8.57984 361 ft 14 kts 161°
2026-04-15 08:52 50.04569 8.58025 357 ft 14 kts 187°
2026-04-15 08:52 50.04515 8.57906 357 ft 15 kts 250°
2026-04-15 08:53 50.04475 8.57737 359 ft 18 kts 250°
2026-04-15 08:53 50.04430 8.57545 359 ft 20 kts 250°
2026-04-15 08:53 50.04383 8.57348 361 ft 21 kts 249°
2026-04-15 08:53 50.04331 8.57132 358 ft 22 kts 249°
2026-04-15 08:54 50.04278 8.56910 361 ft 23 kts 249°
2026-04-15 08:54 50.04221 8.56674 360 ft 24 kts 250°
2026-04-15 08:54 50.04163 8.56429 358 ft 25 kts 249°
2026-04-15 08:54 50.04101 8.56173 358 ft 26 kts 249°
2026-04-15 08:55 50.04038 8.55909 360 ft 26 kts 250°
2026-04-15 08:55 50.03973 8.55638 362 ft 27 kts 249°
2026-04-15 08:55 50.03906 8.55361 361 ft 28 kts 250°
2026-04-15 08:55 50.03839 8.55077 356 ft 28 kts 249°
2026-04-15 08:56 50.03768 8.54785 358 ft 29 kts 250°
2026-04-15 08:56 50.03700 8.54497 359 ft 23 kts 250°
2026-04-15 08:56 50.03654 8.54326 358 ft 12 kts 227°
2026-04-15 08:56 50.03567 8.54333 355 ft 16 kts 160°
2026-04-15 08:57 50.03489 8.54401 352 ft 10 kts 104°
2026-04-15 08:57 50.03511 8.54512 354 ft 13 kts 69°
2026-04-15 08:57 50.03614 8.54941 354 ft 80 kts 69°
2026-04-15 08:57 50.03887 8.56085 360 ft 143 kts 70°
2026-04-15 08:58 50.04269 8.57692 732 ft 161 kts 69°
2026-04-15 08:58 50.05059 8.61013 2037 ft 175 kts 71°
2026-04-15 08:58 50.05656 8.62779 2320 ft 198 kts 46°
2026-04-15 08:59 50.06963 8.63640 2669 ft 216 kts
2026-04-15 08:59 50.08486 8.63582 3406 ft 220 kts 359°
2026-04-15 08:59 50.09994 8.63469 4257 ft 221 kts 359°
2026-04-15 08:59 50.11588 8.63345 4794 ft 240 kts 359°
2026-04-15 09:00 50.13338 8.63211 5201 ft 261 kts 359°
2026-04-15 09:00 50.15180 8.63075 5854 ft 269 kts 358°
2026-04-15 09:00 50.17068 8.62939 6582 ft 275 kts 358°
2026-04-15 09:00 50.18994 8.62808 7292 ft 279 kts 357°
2026-04-15 09:01 50.20945 8.62677 8008 ft 283 kts 357°
2026-04-15 09:01 50.22923 8.62543 8735 ft 286 kts 357°
2026-04-15 09:01 50.24922 8.62527 9433 ft 290 kts
2026-04-15 09:01 50.26910 8.63124 10150 ft 293 kts 11°
2026-04-15 09:02 50.28940 8.63783 10558 ft 307 kts 11°
2026-04-15 09:02 50.31102 8.64490 10690 ft 329 kts 11°
2026-04-15 09:02 50.33414 8.65244 10822 ft 349 kts 11°
2026-04-15 09:02 50.35855 8.66038 10943 ft 368 kts 11°
2026-04-15 09:03 50.38365 8.66857 11253 ft 378 kts 11°
2026-04-15 09:03 50.40961 8.67705 11774 ft 383 kts 11°
2026-04-15 09:03 50.43576 8.68561 12327 ft 386 kts 11°
2026-04-15 09:03 50.46220 8.69432 12891 ft 389 kts 11°
2026-04-15 09:04 50.48880 8.70311 13479 ft 392 kts 10°
2026-04-15 09:04 50.51561 8.71194 14035 ft 395 kts 10°
2026-04-15 09:04 50.54265 8.72081 14544 ft 398 kts 10°
2026-04-15 09:04 50.56987 8.72975 15065 ft 400 kts 10°
2026-04-15 09:05 50.59715 8.73875 15574 ft 402 kts 10°
2026-04-15 09:05 50.62422 8.74768 16050 ft 404 kts 10°
2026-04-15 09:05 50.65187 8.75682 16551 ft 407 kts 10°
2026-04-15 09:05 50.67958 8.76601 17038 ft 409 kts 11°
2026-04-15 09:06 50.70761 8.77529 17505 ft 411 kts 10°
2026-04-15 09:06 50.73560 8.78457 17965 ft 414 kts 11°
2026-04-15 09:06 50.76385 8.79396 18426 ft 416 kts 11°
2026-04-15 09:06 50.79224 8.80341 18836 ft 418 kts 11°
2026-04-15 09:07 50.82044 8.81282 19223 ft 420 kts 11°
2026-04-15 09:07 50.84911 8.82238 19615 ft 423 kts 11°
2026-04-15 09:07 50.87799 8.83203 20016 ft 425 kts 11°
2026-04-15 09:07 50.90694 8.84173 20418 ft 427 kts 11°
2026-04-15 09:08 50.93610 8.85150 20824 ft 430 kts 11°
2026-04-15 09:08 50.96546 8.86130 21201 ft 432 kts 11°
2026-04-15 09:08 50.99492 8.87113 21582 ft 434 kts 11°
2026-04-15 09:08 51.02459 8.88107 21957 ft 437 kts 11°
2026-04-15 09:09 51.05444 8.89109 22232 ft 439 kts 11°
2026-04-15 09:09 51.08448 8.90118 22293 ft 446 kts 11°
2026-04-15 09:09 51.11506 8.91146 22290 ft 451 kts 11°
2026-04-15 09:09 51.14577 8.92183 22291 ft 452 kts 11°
2026-04-15 09:10 51.17613 8.93212 22291 ft 452 kts 11°
2026-04-15 09:10 51.20696 8.94259 22289 ft 452 kts 11°
2026-04-15 09:10 51.23769 8.95308 22303 ft 452 kts 11°
2026-04-15 09:10 51.26853 8.96364 22287 ft 452 kts 11°
2026-04-15 09:11 51.29885 8.97692 22285 ft 454 kts 18°
2026-04-15 09:11 51.32822 8.99559 22286 ft 454 kts 21°
2026-04-15 09:11 51.35755 9.01460 22274 ft 454 kts 20°
2026-04-15 09:11 51.38683 9.03354 22281 ft 454 kts 20°
2026-04-15 09:12 51.41611 9.05249 22272 ft 454 kts 20°
2026-04-15 09:12 51.44502 9.07128 22265 ft 454 kts 21°
2026-04-15 09:12 51.47424 9.09029 22274 ft 454 kts 20°
2026-04-15 09:12 51.50395 9.10726 22266 ft 452 kts 13°
2026-04-15 09:13 51.53472 9.11712 22268 ft 450 kts
2026-04-15 09:13 51.56583 9.12367 22269 ft 450 kts
2026-04-15 09:13 51.59691 9.13027 22257 ft 451 kts
2026-04-15 09:13 51.62801 9.13696 22257 ft 451 kts
2026-04-15 09:14 51.65866 9.14361 22261 ft 451 kts
2026-04-15 09:14 51.68966 9.15038 22281 ft 451 kts
2026-04-15 09:14 51.72075 9.15715 22278 ft 451 kts
2026-04-15 09:14 51.75180 9.16392 22272 ft 451 kts
2026-04-15 09:15 51.78291 9.17072 22255 ft 451 kts
2026-04-15 09:15 51.81395 9.17751 22257 ft 451 kts
2026-04-15 09:15 51.84500 9.18429 22255 ft 451 kts
2026-04-15 09:15 51.87610 9.19106 22254 ft 451 kts
2026-04-15 09:16 51.90714 9.19800 22254 ft 451 kts
2026-04-15 09:16 51.93815 9.20568 22259 ft 451 kts
2026-04-15 09:16 51.96920 9.21392 22255 ft 451 kts
2026-04-15 09:16 52.00014 9.22240 22254 ft 451 kts
2026-04-15 09:17 52.03068 9.23079 22252 ft 449 kts
2026-04-15 09:17 52.06110 9.23896 21574 ft 441 kts
2026-04-15 09:17 52.09181 9.24588 20340 ft 448 kts
2026-04-15 09:17 52.12256 9.25146 19598 ft 441 kts
2026-04-15 09:18 52.15290 9.25631 18842 ft 436 kts
2026-04-15 09:18 52.18295 9.26099 18006 ft 433 kts
2026-04-15 09:18 52.21294 9.26584 17357 ft 432 kts
2026-04-15 09:18 52.24278 9.27107 17049 ft 431 kts
2026-04-15 09:19 52.27252 9.27761 16793 ft 430 kts
2026-04-15 09:19 52.30167 9.28520 16540 ft 429 kts
2026-04-15 09:19 52.33103 9.29354 16285 ft 428 kts
2026-04-15 09:19 52.36028 9.30203 16033 ft 426 kts
2026-04-15 09:20 52.38942 9.31028 15781 ft 424 kts
2026-04-15 09:20 52.41849 9.31821 15546 ft 422 kts
2026-04-15 09:20 52.44738 9.32580 15299 ft 420 kts
2026-04-15 09:20 52.47622 9.33324 15053 ft 418 kts
2026-04-15 09:21 52.50492 9.34064 14810 ft 417 kts
2026-04-15 09:21 52.53349 9.34801 14569 ft 415 kts
2026-04-15 09:21 52.56163 9.35507 14331 ft 413 kts
2026-04-15 09:21 52.59016 9.35544 14086 ft 408 kts 352°
2026-04-15 09:22 52.61777 9.34611 13825 ft 404 kts 340°
2026-04-15 09:22 52.64333 9.32790 13566 ft 400 kts 329°
2026-04-15 09:22 52.66600 9.30173 13297 ft 396 kts 318°
2026-04-15 09:22 52.68555 9.27020 12686 ft 389 kts 313°
2026-04-15 09:23 52.70371 9.23915 12518 ft 362 kts 313°
2026-04-15 09:23 52.72046 9.21029 12379 ft 334 kts 313°
2026-04-15 09:23 52.73587 9.18362 12249 ft 309 kts 313°
2026-04-15 09:23 52.75028 9.15866 11928 ft 294 kts 313°
2026-04-15 09:24 52.76405 9.13477 11327 ft 288 kts 313°
2026-04-15 09:24 52.77775 9.11097 10716 ft 283 kts 313°
2026-04-15 09:24 52.79127 9.08749 10655 ft 282 kts 312°
2026-04-15 09:24 52.80482 9.06394 10583 ft 284 kts 312°
2026-04-15 09:25 52.81836 9.04040 10472 ft 282 kts 312°
2026-04-15 09:25 52.83188 9.01687 10349 ft 283 kts 312°
2026-04-15 09:25 52.84547 8.99326 10180 ft 284 kts 312°
2026-04-15 09:25 52.85921 8.96941 9703 ft 285 kts 312°
2026-04-15 09:26 52.87289 8.94563 9160 ft 287 kts 312°
2026-04-15 09:26 52.88652 8.92191 8793 ft 283 kts 311°
2026-04-15 09:26 52.90007 8.89831 8341 ft 283 kts 311°
2026-04-15 09:26 52.91358 8.87472 7891 ft 282 kts 311°
2026-04-15 09:27 52.92705 8.85113 7476 ft 280 kts 311°
2026-04-15 09:27 52.94015 8.82819 7337 ft 267 kts 311°
2026-04-15 09:27 52.95230 8.80654 7154 ft 252 kts 306°
2026-04-15 09:27 52.96073 8.78199 6736 ft 243 kts 286°
2026-04-15 09:28 52.96374 8.75483 6236 ft 238 kts 267°
2026-04-15 09:28 52.96366 8.72766 5831 ft 234 kts 268°
2026-04-15 09:28 52.96369 8.70074 5479 ft 233 kts 268°
2026-04-15 09:28 52.96375 8.67378 5125 ft 234 kts 268°
2026-04-15 09:29 52.96379 8.64694 4753 ft 233 kts 268°
2026-04-15 09:29 52.96385 8.62020 4424 ft 232 kts 268°
2026-04-15 09:29 52.96391 8.59354 4078 ft 230 kts 267°
2026-04-15 09:29 52.96394 8.56703 3733 ft 229 kts 267°
2026-04-15 09:30 52.96459 8.54962 3564 ft 228 kts 278°
2026-04-15 09:30 52.97385 8.51843 3270 ft 233 kts 311°
2026-04-15 09:30 52.98698 8.50266 3047 ft 236 kts 336°
2026-04-15 09:30 53.00295 8.49710 2842 ft 238 kts
2026-04-15 09:31 53.01889 8.50296 2646 ft 230 kts 27°
2026-04-15 09:31 53.03142 8.51838 2584 ft 222 kts 51°
2026-04-15 09:31 53.03714 8.53216 2560 ft 218 kts 66°
2026-04-15 09:31 53.04158 8.56396 2483 ft 205 kts 91°
2026-04-15 09:32 53.04196 8.57931 2360 ft 197 kts 91°
2026-04-15 09:32 53.04248 8.60129 2102 ft 183 kts 91°
2026-04-15 09:32 53.04313 8.62750 1805 ft 160 kts 92°
2026-04-15 09:32 53.04342 8.63968 1664 ft 153 kts 92°
2026-04-15 09:33 53.04395 8.66225 1389 ft 145 kts 92°
2026-04-15 09:33 53.04420 8.67336 1255 ft 145 kts 92°
2026-04-15 09:33 53.04457 8.69021 1066 ft 146 kts 92°
2026-04-15 09:33 53.04497 8.70707 881 ft 148 kts 91°
2026-04-15 09:34 53.04541 8.72401 649 ft 144 kts 91°
2026-04-15 09:34 53.04581 8.74054 468 ft 144 kts 92°
2026-04-15 09:34 53.04626 8.75745 251 ft 146 kts 91°
2026-04-15 09:34 53.04673 8.77960 27 ft 140 kts 92°
2026-04-15 09:35 53.04685 8.78942 23 ft 107 kts 87°
2026-04-15 09:35 53.04708 8.79853 22 ft 56 kts 87°
2026-04-15 09:35 53.04722 8.80346 22 ft 21 kts 87°
2026-04-15 09:35 53.04792 8.80464 21 ft 16 kts
2026-04-15 09:36 53.04886 8.80374 21 ft 17 kts 284°
2026-04-15 09:36 53.04885 8.80181 22 ft 17 kts 269°
2026-04-15 09:36 53.04880 8.79974 22 ft 19 kts 268°
2026-04-15 09:36 53.04876 8.79757 23 ft 19 kts 268°
2026-04-15 09:37 53.04871 8.79527 23 ft 21 kts 267°
2026-04-15 09:37 53.04864 8.79279 23 ft 22 kts 267°
2026-04-15 09:37 53.04857 8.79013 20 ft 21 kts 267°
2026-04-15 09:37 53.04893 8.78865 22 ft 14 kts 319°
2026-04-15 09:38 53.04970 8.78756 22 ft 15 kts 319°
2026-04-15 09:38 53.05014 8.78614 22 ft 10 kts 293°
2026-04-15 09:38 53.05054 8.78566 22 ft 5 kts 22°
2026-04-15 09:38 53.05076 8.78609 22 ft 3 kts 47°
2026-04-15 09:39 53.05091 8.78634 22 ft 2 kts 47°
2026-04-15 09:39 53.05096 8.78642 22 ft 0 kts 47°